Regional Weather Roundup
Issued by NWS

Home | Current Version | Previous Version | Graphics & Text | Print | Product List | Glossary On
Versions: 1 2 3 4 5 6 7 8 9 10 11 12 13 14 15 16 17 18 19 20 21 22 23 24 25 26 27 28 29 30 31 32 33 34 35 36 37 38 39 40 41 42 43 44 45 46 47 48 49 50
000
ASUS43 KOAX 270002
RWRNE

WEATHER ROUNDUP FOR NEBRASKA
NATIONAL WEATHER SERVICE OMAHA NE
700 PM CDT TUE AUG 26 2014

NOTES: SATELLITE DATA IS BEING USED TO AUGMENT CLOUD COVER ABOVE
       12000 FEET.
       "FAIR" INDICATES FEW OR NO CLOUDS BELOW 12,000 FEET WITH NO
       SIGNIFICANT WEATHER AND/OR OBSTRUCTIONS TO VISIBILITY.

  * THESE STATIONS DO NOT REPORT WEATHER SUCH AS RAIN...SNOW OR FOG.

NEZ001>004-019>022-054>056-270100-
NEBRASKA PANHANDLE

CITY           SKY/WX    TMP DP  RH WIND       PRES   REMARKS
SCOTTSBLUFF    TSTM      65  60  84 SE7       30.11R
6HR MIN TEMP:  62; 6HR MAX TEMP:  89; 6HR PCP:  0.21;

ALLIANCE       PTSUNNY   76  57  51 S20       30.10S
6HR MIN TEMP:  76; 6HR MAX TEMP:  84;

CHADRON        MOSUNNY   84  59  42 N12       30.04S
6HR MIN TEMP:  77; 6HR MAX TEMP:  86;

KIMBALL        CLOUDY    75  58  56 S9        30.15S
SIDNEY         CLOUDY    77  62  59 SE14      30.14F
6HR MIN TEMP:  74; 6HR MAX TEMP:  83;

$$

NEZ057>060-069>072-079>082-270100-
SOUTHWEST NEBRASKA

CITY           SKY/WX    TMP DP  RH WIND       PRES   REMARKS
NORTH PLATTE   SUNNY     78  62  57 S7        30.10S
6HR MIN TEMP:  73; 6HR MAX TEMP:  81;

IMPERIAL       MOSUNNY   78  64  61 SE9       30.10F
6HR MIN TEMP:  69; 6HR MAX TEMP:  78;

LEXINGTON      PTSUNNY   78  68  71 E7        30.10S
MCCOOK         SUNNY     80  65  59 NE10      30.08S
6HR MIN TEMP:  71; 6HR MAX TEMP:  83;

OGALLALA       MOSUNNY   74  62  66 S3        30.11F
$$

NEZ005>010-023>029-035>040-094-270100-
NORTH CENTRAL NEBRASKA

CITY           SKY/WX    TMP DP  RH WIND       PRES   REMARKS
VALENTINE      SUNNY     80  61  52 SE15      30.07F
6HR MIN TEMP:  73; 6HR MAX TEMP:  82;

AINSWORTH      SUNNY     76  61  59 SE7       30.10S
BROKEN BOW     SUNNY     78  65  63 SE9       30.10S
6HR MIN TEMP:  71; 6HR MAX TEMP:  79;

O`NEILL        MOSUNNY   74  63  68 E9        30.12S
ORD            SUNNY     74  65  73 SE8       30.09F
6HR MIN TEMP:  67; 6HR MAX TEMP:  76;

THEDFORD       MOSUNNY   80  61  52 S10G16    30.10S
$$

NEZ041-046>049-061>064-073>077-083>087-270100-
SOUTH CENTRAL NEBRASKA

CITY           SKY/WX    TMP DP  RH WIND       PRES   REMARKS
GRAND ISLAND   SUNNY     78  68  71 E8        30.09F
6HR MIN TEMP:  75; 6HR MAX TEMP:  80;

AURORA         SUNNY     76  69  78 E6        30.09S
HASTINGS       SUNNY     77  67  71 E10       30.08F
6HR MIN TEMP:  73; 6HR MAX TEMP:  80; 6HR PCP:  0.01;

HEBRON         SUNNY     85  65  50 E3        30.05S
HOLDREGE       SUNNY     79  69  72 CALM      30.07S
KEARNEY *      SUNNY     79  70  73 NE8       30.09S
YORK           SUNNY     75 N/A N/A NE10      30.09S
$$

NEZ011>018-030>034-042>045-270100-
NORTHEAST NEBRASKA

CITY           SKY/WX    TMP DP  RH WIND       PRES   REMARKS
NORFOLK        PTSUNNY   72  65  78 E9        30.12R
6HR MIN TEMP:  70; 6HR MAX TEMP:  74;

ALBION         PTSUNNY   73  65  75 E6        30.11S
BLAIR          MOSUNNY   74  67  76 NE5       30.11S
FREMONT        MOSUNNY   75  65  70 NE8       30.11S
TEKAMAH        PTSUNNY   76  66  71 NE7       30.11S
6HR MIN TEMP:  73; 6HR MAX TEMP:  78; 6HR PCP: TRACE;

WAYNE          PTSUNNY   70  64  79 E7        30.13S
$$

NEZ050>053-065>068-078-088>093-270100-
SOUTHEAST NEBRASKA

CITY           SKY/WX    TMP DP  RH WIND       PRES   REMARKS
LINCOLN        SUNNY     77  67  71 NE12      30.09F
6HR MIN TEMP:  75; 6HR MAX TEMP:  81; 6HR PCP: TRACE;

OMAHA EPPLEY   PTSUNNY   74  68  81 NE7       30.10S
6HR MIN TEMP:  74; 6HR MAX TEMP:  78; 6HR PCP:  0.04;

BEATRICE       PTSUNNY   84  70  61 E7        30.06R
FALLS CITY     SUNNY     82  70  66 E7        30.06R
6HR MIN TEMP:  79; 6HR MAX TEMP:  87;

NEBRASKA CITY  MOSUNNY   77  69  75 NE7       30.09R
PLATTSMOUTH    MOSUNNY   77  67  71 NE8       30.10S
$$

NEZ044-045-051>053-067-270100-
OMAHA AREA

CITY           SKY/WX    TMP DP  RH WIND       PRES   REMARKS
OMAHA EPPLEY   PTSUNNY   74  68  81 NE7       30.10S
6HR MIN TEMP:  74; 6HR MAX TEMP:  78; 6HR PCP:  0.04;

BLAIR          MOSUNNY   74  67  76 NE5       30.11S
FREMONT        MOSUNNY   75  65  70 NE8       30.11S
MILLARD        MOSUNNY   76  67  72 E5        30.09S
OFFUTT AFB     MOSUNNY   77  70  79 NE8       30.10R
PLATTSMOUTH    MOSUNNY   77  67  71 NE8       30.10S
WAHOO          MOCLDY    74  65  74 NE8       30.09F HAZE
$$



USA.gov is the U.S. government's official web portal to all federal, state and local government web resources and services.